Lexington Weather

Lexington, Massachusetts, USA

47°F
12/8/2022 3:26pm 
  • Lexington Conditions: Clear
  • Temperature: 47.3°F / 8.5°CColder 2.0°F than last hour.
  • Dew Point: 35.4°FDecreased 0.6°Fsince last hour.
  • Relative Humidity: 63%Increased 3.0% since last hour.
  • Wind: Wind from NNE NNE Calm, 10-min avg: 2 mph, gust: 8 mph
  • Barometer: 30.09 inRising 0.03  inHg/hr Rising Slowly
  • Visibility: 10 miles
  • Rain Today: 0.00 in
  •   

Warning: Undefined variable $rc in /homepages/6/d276339138/htdocs/weather/20190804/ssi/nwsProduct.php on line 323

Warning: Undefined variable $rc in /homepages/6/d276339138/htdocs/weather/20190804/ssi/nwsProduct.php on line 325

Warning: Undefined variable $rc in /homepages/6/d276339138/htdocs/weather/20190804/ssi/nwsProduct.php on line 323

Warning: Undefined variable $rc in /homepages/6/d276339138/htdocs/weather/20190804/ssi/nwsProduct.php on line 325

Warning: Undefined variable $rc in /homepages/6/d276339138/htdocs/weather/20190804/ssi/nwsProduct.php on line 323

Warning: Undefined variable $rc in /homepages/6/d276339138/htdocs/weather/20190804/ssi/nwsProduct.php on line 325

Warning: Undefined variable $rc in /homepages/6/d276339138/htdocs/weather/20190804/ssi/nwsProduct.php on line 323

Warning: Undefined variable $rc in /homepages/6/d276339138/htdocs/weather/20190804/ssi/nwsProduct.php on line 325

Warning: Undefined variable $rc in /homepages/6/d276339138/htdocs/weather/20190804/ssi/nwsProduct.php on line 323

Warning: Undefined variable $rc in /homepages/6/d276339138/htdocs/weather/20190804/ssi/nwsProduct.php on line 325

Warning: Undefined variable $rc in /homepages/6/d276339138/htdocs/weather/20190804/ssi/nwsProduct.php on line 323

Warning: Undefined variable $rc in /homepages/6/d276339138/htdocs/weather/20190804/ssi/nwsProduct.php on line 325

Warning: Undefined variable $rc in /homepages/6/d276339138/htdocs/weather/20190804/ssi/nwsProduct.php on line 323

Warning: Undefined variable $rc in /homepages/6/d276339138/htdocs/weather/20190804/ssi/nwsProduct.php on line 325

Regional Weather Roundup
for Boston, MA

        
000
ASUS41 KBOX 050610
RWRBOX

REGIONAL WEATHER ROUNDUP
NATIONAL WEATHER SERVICE BOSTON/NORTON MA
100 AM EST MON DEC 05 2022

NOTE:  "FAIR" INDICATES FEW OR NO CLOUDS BELOW 12,000 FEET WITH NO 
SIGNIFICANT WEATHER AND/OR OBSTRUCTIONS TO VISIBILITY.

MAZALL-050700-
EASTERN MASSACHUSETTS
  
CITY           SKY/WX    TMP DP  RH WIND       PRES   REMARKS
BOSTON         CLEAR     31  22  69 S7        30.21R WCI  24          
6HR MIN TEMP:  31; 6HR MAX TEMP:  40;                                

BEVERLY        CLEAR     23  19  85 CALM      30.20R                  
LAWRENCE       CLEAR     26  19  74 CALM      30.21R                  
BEDFORD        CLEAR     24  20  84 CALM      30.19R                  
NORWOOD        CLEAR     24  21  88 CALM      30.21R                  
MARSHFIELD       N/A     25  23  93 CALM      30.21S                  
PLYMOUTH       CLEAR     24  21  88 CALM      30.20S                  
TAUNTON          N/A    N/A N/A N/A MISG      30.20S                  
NEW BEDFORD    CLEAR     26  25  96 CALM      30.20S                  
$$

MAZALL-050700-
CAPE COD AND THE ISLANDS
  
CITY           SKY/WX    TMP DP  RH WIND       PRES   REMARKS
FALMOUTH       CLEAR     21  19  93 CALM      30.21R                  
HYANNIS        CLEAR     23  21  92 CALM      30.19S                  
CHATHAM        CLEAR     30  24  78 CALM      30.21R                  
PROVINCETOWN   CLEAR     24  21  88 CALM      30.21S                  
NANTUCKET      CLEAR     30  24  78 CALM      30.21R                  
MARTHAS VNYRD  CLEAR     21  18  88 CALM      30.21R                  
$$
 
MAZALL-050700-
CENTRAL AND WESTERN MASSACHUSETTS
  
CITY           SKY/WX    TMP DP  RH WIND       PRES   REMARKS
WORCESTER      CLEAR     29  18  63 W8        30.14S WCI  21          
6HR MIN TEMP:  29; 6HR MAX TEMP:  33;                                

FITCHBURG      CLEAR     22  17  81 CALM      30.18F                  
ORANGE         CLEAR     21  18  88 CALM      30.17S                  
SPRINGFIELD    CLEAR     21  20  96 CALM      30.17S                  
WESTFIELD      CLEAR     22  19  89 CALM      30.17F                  
NORTH ADAMS    CLEAR     26  20  77 SE8       30.13F WCI  18          
PITTSFIELD     CLEAR     20  17  88 CALM      30.11S                  
$$
 
RIZALL-050700-
RHODE ISLAND
  
CITY           SKY/WX    TMP DP  RH WIND       PRES   REMARKS
PROVIDENCE     CLEAR     26  23  88 CALM      30.21S                  
6HR MIN TEMP:  26; 6HR MAX TEMP:  36;                                

NEWPORT        CLEAR     28  23  81 CALM      30.20S                  
BLOCK ISLAND   CLEAR     34  21  59 E3        30.21S                  
SMITHFIELD     CLEAR     22  19  89 CALM      30.19R                  
WESTERLY       CLEAR     26  22  84 CALM      30.20F                  
$$
 
CTZALL-050700-
CONNECTICUT
  
CITY           SKY/WX    TMP DP  RH WIND       PRES   REMARKS
BRADLEY INTL   PTCLDY    26  21  81 CALM      30.18F                  
6HR MIN TEMP:  24; 6HR MAX TEMP:  33;                                

HARTFORD       CLEAR     27  23  85 CALM      30.20S                  
BRIDGEPORT     CLEAR     30  25  81 N3        30.19S                  
DANBURY        CLEAR     25  19  78 CALM      30.19S                  
GROTON         CLEAR     27  23  85 N3        30.20S                  
NEW HAVEN      CLEAR     27  23  85 N5        30.19R WCI  22          
CHESTER          N/A     28  21  74 CALM      30.18S                  
MERIDEN        CLEAR     24  21  88 CALM      30.20R                  
WILLIMANTIC    CLEAR     23  22  96 CALM      30.20S                  
OXFORD         CLEAR     26  21  81 CALM      30.16F                  
$$

MEZ002-015-021-024-NHZ003-005-008-011-012-014-VTZ005-008-050700-
NORTHERN NEW ENGLAND
  
CITY           SKY/WX    TMP DP  RH WIND       PRES   REMARKS
PORTLAND ME    CLEAR     24  19  81 CALM      30.19S                  
6HR MIN TEMP:  23; 6HR MAX TEMP:  33;                                

BANGOR ME      MOCLDY    25  16  68 S3        30.19R                  
CONCORD NH     CLEAR     21  18  88 CALM      30.17S                  
MANCHESTER NH  PTCLDY    23  19  85 CALM      30.16F                  
NASHUA NH      CLEAR     21  21 100 CALM      30.19S                  
PORTSMOUTH NH  MOCLDY    24  18  78 CALM      30.19R                  
JAFFREY NH     CLEAR     24  20  84 S3        30.13S                  
KEENE NH       CLEAR     20  18  92 CALM        N/A                   
BURLINGTON VT  CLEAR     32  20  61 S13       30.07S WCI  22          
MT. WASHINGTON FOG        7   7 100 W44         N/A  VSB 1/8 WCI -20  
$$

NYZ052-076-050700-
EASTERN NEW YORK
  
CITY           SKY/WX    TMP DP  RH WIND       PRES   REMARKS
ALBANY         PTCLDY    30  21  69 S9        30.14S WCI  22          
6HR MIN TEMP:  25; 6HR MAX TEMP:  32;                                

NEW YORK CITY  CLEAR     40  23  50 NW8       30.19S                  
6HR MIN TEMP:  39; 6HR MAX TEMP:  44;                                

$$
 
ANZALL-050700-
MARINE OBSERVATIONS
  
STATION/POSITION TIME  TEMP    WIND        PRES    VSBY  WAVE
                       AIR SEA DIR/SP/G                  HT/PER
                 (UTC) (F)     (DEG/KT/KT) (MB)    (MI)  (FT/S)
BOSTON BUOY      0550      51  210/  4/  6 1023.4R         2/10
BUZZARDS BAY     0500   39      CALM  /  1 1023.4R
NANTUCKET SOUND  0550   42 49  310/  4/  4 1022.9R         1
MASS BAY-STELLWA 0404   40 50  260/  8/ 10 1021.6F  1 7/8  2/11
ISLE OF SHOALS   0500   38     230/  5/  7 1021.7R
S OF BLOCK IS    0556      55                N/A           2/10
$$

......................KEY.........................
  SKY/WX - SKY CONDITION/PRESENT WEATHER
  TMP    - TEMPERATURE IN FAHRENHEIT
  DWPT   - DEWPOINT IN FAHRENHEIT
  RH     - RELATIVE HUMIDITY IN PERCENT
  WIND   - DIRECTION AND SPEED IN MPH
  PRES   - MEAN SEA LEVEL PRESSURE IN INCHES OF HG
  WCI    - WIND CHILL INDEX
  VSB    - VISIBILITY IN MILES
  HX     - HEAT INDEX
  TC     - TEMPERATURE IN CELSIUS
  VRB    - VARIABLE WIND DIRECTION
  N/A    - NOT AVAILABLE
  
      

Other recent Regional Weather Roundups

Thu Dec 8, 3:10pm

Thu Dec 8, 2:10pm

Thu Dec 8, 1:10pm

Thu Dec 8, 12:10pm

Thu Dec 8, 11:10am

Thu Dec 8, 10:10am

Thu Dec 8, 9:10am

Thu Dec 8, 8:10am

Thu Dec 8, 7:10am

Thu Dec 8, 6:10am

Thu Dec 8, 5:10am

Thu Dec 8, 4:10am

Thu Dec 8, 3:10am

Thu Dec 8, 2:10am

Thu Dec 8, 1:10am

Thu Dec 8, 12:10am

Wed Dec 7, 11:10pm

Wed Dec 7, 10:10pm

Wed Dec 7, 9:10pm

Wed Dec 7, 8:10pm

Wed Dec 7, 7:10pm

Wed Dec 7, 6:10pm

Wed Dec 7, 5:10pm

Wed Dec 7, 4:10pm

Wed Dec 7, 3:10pm

Wed Dec 7, 2:10pm

Wed Dec 7, 1:10pm

Wed Dec 7, 12:10pm

Wed Dec 7, 11:10am

Wed Dec 7, 10:10am

Wed Dec 7, 9:10am

Wed Dec 7, 8:10am

Wed Dec 7, 7:10am

Wed Dec 7, 6:10am

Wed Dec 7, 5:10am

Wed Dec 7, 4:10am

Wed Dec 7, 3:10am

Wed Dec 7, 2:10am

Wed Dec 7, 1:10am

Wed Dec 7, 12:10am

Tue Dec 6, 11:10pm

Tue Dec 6, 10:10pm

Tue Dec 6, 9:10pm

Tue Dec 6, 8:10pm

Tue Dec 6, 7:10pm

Tue Dec 6, 6:10pm

Tue Dec 6, 5:10pm

Tue Dec 6, 4:10pm

Tue Dec 6, 3:10pm

Tue Dec 6, 2:10pm

Tue Dec 6, 1:10pm

Tue Dec 6, 12:10pm

Tue Dec 6, 11:10am

Tue Dec 6, 10:10am

Tue Dec 6, 9:10am

Tue Dec 6, 8:10am

Tue Dec 6, 7:10am

Tue Dec 6, 6:10am

Tue Dec 6, 5:10am

Tue Dec 6, 4:10am

Tue Dec 6, 3:10am

Tue Dec 6, 2:10am

Tue Dec 6, 1:10am

Tue Dec 6, 12:10am

Mon Dec 5, 11:10pm

Mon Dec 5, 10:10pm

Mon Dec 5, 9:10pm

Mon Dec 5, 8:10pm

Mon Dec 5, 7:10pm

Mon Dec 5, 6:10pm

Mon Dec 5, 5:10pm

Mon Dec 5, 4:10pm

Mon Dec 5, 3:10pm

Mon Dec 5, 2:10pm

Mon Dec 5, 1:10pm

Mon Dec 5, 12:10pm

Mon Dec 5, 11:10am

Mon Dec 5, 10:10am

Mon Dec 5, 9:10am

Mon Dec 5, 8:10am

Mon Dec 5, 7:10am

Mon Dec 5, 6:10am

Mon Dec 5, 5:10am

Mon Dec 5, 4:10am

Mon Dec 5, 3:10am

Mon Dec 5, 2:10am

Mon Dec 5, 12:10am

Sun Dec 4, 11:10pm

Sun Dec 4, 10:10pm

Sun Dec 4, 9:10pm

Sun Dec 4, 8:10pm

Sun Dec 4, 7:10pm

Sun Dec 4, 6:10pm

Sun Dec 4, 5:10pm

Sun Dec 4, 4:10pm

Sun Dec 4, 3:10pm

Sun Dec 4, 2:10pm

Sun Dec 4, 1:10pm

Sun Dec 4, 12:10pm

Sun Dec 4, 11:10am

Sun Dec 4, 10:10am

Sun Dec 4, 9:10am

Sun Dec 4, 8:10am

Sun Dec 4, 7:10am

Sun Dec 4, 6:10am

Sun Dec 4, 5:10am

Sun Dec 4, 4:10am

Sun Dec 4, 3:10am

Sun Dec 4, 2:10am

Sun Dec 4, 1:10am

Sun Dec 4, 12:10am

Sat Dec 3, 11:10pm

Sat Dec 3, 10:10pm

Sat Dec 3, 9:10pm

Sat Dec 3, 8:10pm

Sat Dec 3, 7:10pm

Sat Dec 3, 6:10pm

Sat Dec 3, 5:10pm

Sat Dec 3, 4:10pm

Sat Dec 3, 3:10pm

Sat Dec 3, 2:10pm

Sat Dec 3, 1:10pm

Sat Dec 3, 12:10pm

Sat Dec 3, 11:10am

Sat Dec 3, 10:10am

Sat Dec 3, 9:10am

Sat Dec 3, 8:10am

Sat Dec 3, 7:10am

Sat Dec 3, 6:10am

Sat Dec 3, 5:10am

Sat Dec 3, 4:10am

Sat Dec 3, 3:10am

Sat Dec 3, 2:10am

Sat Dec 3, 1:10am

Sat Dec 3, 12:10am

Fri Dec 2, 11:10pm

Fri Dec 2, 10:10pm

Fri Dec 2, 9:10pm

Fri Dec 2, 8:10pm

Fri Dec 2, 7:10pm

Fri Dec 2, 6:10pm

Fri Dec 2, 5:10pm

Fri Dec 2, 4:10pm

Fri Dec 2, 3:10pm

Fri Dec 2, 2:10pm

Fri Dec 2, 1:10pm

Fri Dec 2, 12:10pm

Fri Dec 2, 11:10am

Fri Dec 2, 10:10am

Fri Dec 2, 9:10am

Fri Dec 2, 8:10am

Fri Dec 2, 7:10am

Fri Dec 2, 6:10am

Fri Dec 2, 5:10am

Fri Dec 2, 4:10am

Fri Dec 2, 3:10am

Fri Dec 2, 2:10am

Fri Dec 2, 1:10am

Fri Dec 2, 12:10am

Thu Dec 1, 11:10pm

Thu Dec 1, 10:10pm

Thu Dec 1, 9:10pm

Thu Dec 1, 8:10pm

Thu Dec 1, 7:10pm

Thu Dec 1, 6:10pm

Thu Dec 1, 5:10pm

Thu Dec 1, 4:10pm

Meta data:

ID: 993841c7-60f9-4c9f-bfe0-5548660811be
Link: https://api.weather.gov/products/993841c7-60f9-4c9f-bfe0-5548660811be